Location: Contre
(49.7477°N, 2.0963°E)
Time: 23:40:57
(UTC+00:00)

SL-4 R/B - Pass Details

Date: 03 February 2023
Orbit: 423 x 637 km, 51.6° (Epoch: 01 April)

Event Time Altitude Azimuth Distance (km) Brightness Sun altitude
Rises 18:31:55 0° 280° (W) 2,418 6.8 -16.7°
Reaches altitude 10° 18:34:00 10° 283° (WNW) 1,570 5.5 -17.0°
Maximum altitude 18:37:30 66° 7° (N) 511 1.7 -17.6°
Enters shadow 18:38:21 47° 67° (ENE) 630 1.9 -17.7°
